Main page
METAR-TAF:

METAR-TAF

Airports :

RAF Leeming

Leeming, England

latitude: 54-18N, longitude: 001-32W, elevation: 40 m

Current weather observation

The report was made 1 hour and 11 minutes ago, at 06:50 UTC
Wind 1 kt from the South
Temperature 2°C
Humidity 100%
Pressure 1015 hPa
Visibility: 3600 m
mist

METAR: EGXE 200650Z AUTO 17001KT 3600 BR OVC006/// 02/02 Q1015

Time: 08:01 (08:01 UTC)


TAF: missing

Weather observations and forecasts of more than 4000 airports (METAR and TAF reports).

The available stations are represented by yellow and red dots on the map.

Hover mouse over dot to see the name of the station.

Then click to see weather observations and forecasts.

To change the map : click on the green buttons with a black cross to zoom in, on the green button with a dash to zoom out, or on the green arrows for adjacent maps.


METAR-TAF: